Starlink 3885

operational
NORAD ID: 52463 Int'l Des: 2022-049 Owner: SPXS Country: US Constellation: starlink
LEOCIRCULAR

About Starlink 3885

Description loading...

Live Position

Loading 3D Globe...

Upcoming Passes

Altitude History

Altitude vs Time

uPlot chart will show altitude changes over time

Two-Line Element Set

1 52463U 22049N 25258.33213721 .00001086 00000-0 86317-4 0 9995
2 52463 53.2167 116.3337 0001426 79.8031 280.3122 15.08843619185918
Epoch: Sep 15, 2025 • Age: 19 hours

Current Status

Altitude 543.6 km
Velocity 7.60 km/s
Sub-Earth Point 45.44°N, 116.54°E
Launch Date May 6, 2022
Age 3.3 years
Type internet

Technical Details

Classification Payload
Mass 297.00 kg
Dry Mass 220.00 kg
Total Mass 297.00 kg
Length 0.20 m
Diameter 2.80 m
Span 9.00 m
Shape Box + pan
Manufacturer SPXS
Bus Type Starlink
Phase Status In Orbit
Owner/State SPXS/US

Large Constellations

Loading constellations...